FW3958 Weather Reports


time (UTC)temp
C
wind
direction
speed
KPH
gust
KPH
rain 1hr
cm
rain 24hr
cm
rain mn
cm
humidity
%
barometer
mb
20260903043037 13 200 6.4 17.7 0.00 0.43 0.43 97 1009.2
20260903041538 13 180 9.7 19.3 0.00 0.43 0.43 97 1009.1
20260903040038 13 205 9.7 16.1 0.00 0.43 0.43 98 1009.0
20260903034540 13 188 6.4 17.7 0.00 0.43 0.43 97 1008.9
20260903033041 13 184 6.4 16.1 0.00 0.43 0.43 98 1008.8
20260903031534 13 182 3.2 11.3 0.00 0.43 0.43 97 1008.8
20260903030034 14 184 6.4 12.9 0.00 0.43 0.43 96 1008.7
20260903024535 14 174 6.4 14.5 0.00 0.43 0.43 95 1008.7
20260903023032 14 214 6.4 17.7 0.00 0.43 0.43 95 1008.7
20260903021538 15 199 6.4 14.5 0.03 0.43 0.43 95 1008.7
20260903020030 15 178 6.4 12.9 0.03 0.43 0.43 96 1008.5
20260903014540 15 201 3.2 9.7 0.03 0.43 0.43 96 1008.6
20260903013032 16 216 9.7 30.6 0.03 0.43 0.43 92 1008.6
20260903011529 16 209 8.0 17.7 0.00 0.41 0.41 88 1008.4
20260903010030 17 211 8.0 20.9 0.00 0.41 0.41 84 1008.4
20260903004534 17 220 9.7 22.5 0.00 0.41 0.41 84 1008.3
20260903003027 17 224 6.4 20.9 0.00 0.41 0.41 87 1008.2
20260903001524 17 205 11.3 29.0 0.00 0.41 0.41 88 1008.2
20260903000024 17 223 12.9 27.4 0.00 0.41 0.41 87 1008.1
20260902234524 16 172 12.9 20.9 0.00 0.41 0.41 92 1008.1
20260902233022 16 202 4.8 22.5 0.00 0.41 0.41 94 1008.0
20260902231523 16 190 12.9 27.4 0.00 0.41 0.41 89 1007.9
20260902230022 17 213 11.3 32.2 0.00 0.41 0.41 86 1007.7
20260902224521 17 183 12.9 30.6 0.00 0.41 0.41 89 1007.5
20260902223019 17 197 14.5 32.2 0.00 0.41 0.41 91 1007.4
20260902221517 16 184 16.1 29.0 0.00 0.41 0.41 91 1007.2
20260902220013 16 217 14.5 37.0 0.00 0.41 0.41 96 1007.0
20260902214511 16 211 12.9 27.4 0.05 0.41 0.41 96 1007.1
20260902213007 15 200 11.3 22.5 0.05 0.41 0.41 99 1006.9
20260902211504 15 217 16.1 30.6 0.05 0.41 0.41 100 1006.5
20260902210003 15 214 14.5 27.4 0.05 0.41 0.41 100 1006.0
20260902204503 15 177 16.1 35.4 0.00 0.36 0.36 100 1005.3
20260902203100 15 184 14.5 30.6 0.00 0.36 0.36 99 1004.8
20260902201559 15 182 16.1 35.4 0.00 0.36 0.36 97 1004.6
20260902200056 15 154 12.9 25.7 0.00 0.36 0.36 97 1004.5
20260902194555 15 74 1.6 8.0 0.00 0.36 0.36 99 1004.5
20260902193054 14 130 3.2 14.5 0.03 0.36 0.36 98 1004.7
20260902191558 15 138 3.2 11.3 0.03 0.36 0.36 99 1004.8
20260902190055 15 170 4.8 16.1 0.05 0.36 0.36 100 1004.9
20260902184611 15 109 1.6 8.0 0.08 0.36 0.36 100 1004.9
20260902183055 14 120 0.0 4.8 0.05 0.33 0.33 100 1005.0
20260902181548 14 63 1.6 8.0 0.08 0.33 0.33 100 1005.3
20260902180047 14 95 1.6 9.7 0.10 0.30 0.30 100 1005.7
20260902174545 14 99 4.8 22.5 0.10 0.28 0.28 98 1006.2
20260902173040 14 130 6.4 16.1 0.15 0.28 0.28 100 1006.5
20260902171540 14 128 3.2 8.0 0.15 0.25 0.25 100 1006.7
20260902170037 14 129 0.0 3.2 0.10 0.20 0.20 100 1006.9
20260902164536 14 129 0.0 3.2 0.10 0.18 0.18 100 1006.9
20260902163038 14 124 3.2 6.4 0.08 0.13 0.13 100 1007.0
20260902161534 14 127 0.0 3.2 0.05 0.10 0.10 100 1007.1
20260902160032 13 126 1.6 9.7 0.05 0.10 0.10 100 1007.3
20260902154531 13 153 0.0 4.8 0.03 0.08 0.08 100 1007.4
20260902153030 13 118 1.6 9.7 0.03 0.05 0.05 99 1007.5
20260902151529 13 125 4.8 12.9 0.03 0.05 0.05 99 1007.6
20260902150027 14 126 0.0 9.7 0.03 0.05 0.05 99 1007.6
20260902144534 14 161 0.0 6.4 0.03 0.05 0.05 99 1007.8
20260902143025 14 131 1.6 9.7 0.00 0.03 0.03 98 1007.9
20260902141530 14 111 0.0 6.4 0.00 0.03 0.03 98 1007.8
20260902140033 14 118 0.0 4.8 0.00 0.03 0.03 97 1008.0
20260902134522 14 114 1.6 8.0 0.00 0.03 0.03 96 1008.0
20260902133020 14 139 4.8 9.7 0.00 0.03 0.03 96 1008.1
20260902131530 14 107 3.2 9.7 0.00 0.03 0.03 97 1008.2
20260902130015 13 179 0.0 12.9 0.00 0.03 0.03 99 1008.6
20260902124514 13 149 0.0 3.2 0.00 0.03 0.03 100 1008.7
20260902123015 13 154 0.0 0.0 0.00 0.03 0.03 100 1009.1
20260902121509 13 154 0.0 6.4 0.00 0.03 0.03 100 1009.3
20260902120008 13 129 0.0 8.0 0.00 0.03 0.03 100 1009.4
20260902114508 13 108 1.6 4.8 0.00 0.03 0.03 100 1009.7
20260902113004 13 124 1.6 4.8 0.00 0.03 0.03 100 1010.0
20260902111502 13 158 0.0 4.8 0.00 0.03 0.03 100 1010.2
20260902110001 13 155 0.0 1.6 0.00 0.03 0.03 100 1010.4
20260902104601 13 155 0.0 1.6 0.00 0.03 0.03 100 1010.3
20260902103105 13 155 0.0 1.6 0.00 0.03 0.03 100 1010.4
20260902101558 13 159 0.0 4.8 0.03 0.03 0.03 100 1010.4
20260902100112 13 160 0.0 1.6 0.03 0.03 0.03 100 1010.6
20260902094555 13 160 0.0 4.8 0.03 0.03 0.03 100 1010.7
20260902093054 14 133 0.0 4.8 0.03 0.03 0.03 100 1010.7
20260902091606 14 109 4.8 14.5 0.00 0.00 0.00 100 1011.0
20260902090051 14 197 1.6 9.7 0.00 0.00 0.00 100 1011.4
20260902084548 14 180 3.2 8.0 0.00 0.00 0.00 100 1011.4
20260902083046 14 170 3.2 14.5 0.00 0.00 0.00 100 1011.4
20260902081546 14 174 9.7 14.5 0.00 0.00 0.00 99 1011.5
20260902080058 15 188 9.7 20.9 0.00 0.00 0.00 99 1011.7
20260902074542 15 193 11.3 24.1 0.00 0.00 0.00 99 1011.8
20260902073038 15 189 11.3 24.1 0.00 0.00 0.00 99 1011.8
20260902071552 14 188 4.8 12.9 0.00 0.00 0.00 98 1012.0